STARLINK-3312 (50850 NORAD) Tracking and Keplerian Element Data

This shows tracking and keplerian element data for the satellite.

Feedback or suggestion? Click here.




ElementValue
Catalog50850
NameSTARLINK-3312
Epoch Orbit130
Epoch Day140.58334491
Epoch Year2022
RAAN258.7942
Inclination53.2175
Eccentricity0.0002012
Argument of Perigee26.9977
Mean Anonmoly46.9375
Mean Motion15.4897535
Decay Rate-0.00722784
L11 50850U 22001AZ 22140.58334491 -.00722784 00000+0 -14203-1 0 9991
L22 50850 53.2175 258.7942 0002012 26.9977 46.9375 15.48975350 1300

Live tracking and technical data element details for STARLINK-3312 (NORAD 50850). STARLINK-3312 can be tracked NOW for your location showing map with azimuth and elevation plus other details from your city location.

Track the satellite on the map from your city or location and see movement details for azimuth, elevation, latitude, longitude, range, height, and movement on the map or in text.







IsCatalogInMostPopularTable: catalog: 50850, numindb: 21
Update: records affected: 1



GetName: 50850 STARLINK-3312

Hit Count: updated at: Sun, 22 May 2022 03:52:35 GMT